[TLELIST] Archives

 

[TLELIST] Current TLEs

January 24th 2024 PDT

HST 1 20580U 90037B 24022.97129220 .00006258 00000-0 31046-3 0 9994 2 20580 28.4672 243.1365 0002223 244.1327 115.9035 15.15655275654812 ISS (ZARYA) 1 25544U 98067A 24024.30477502 .00025731 00000-0 45968-3 0 9993 2 25544 51.6430 313.2601 0005044 124.9347 19.6351 15.49847701436082 CXO 1 25867U 99040B 24025.07214892 .00000543 00000-0 00000-0 0 9998 2 25867 38.4747 168.7210 9001797 285.3113 0.1878 0.37805963 14026 ...Continue Reading

[TLELIST] Current TLEs

January 23rd 2024 PDT

HST 1 20580U 90037B 24022.97129220 .00006258 00000-0 31046-3 0 9994 2 20580 28.4672 243.1365 0002223 244.1327 115.9035 15.15655275655071 ISS (ZARYA) 1 25544U 98067A 24023.33753979 .00025415 00000-0 45497-3 0 9996 2 25544 51.6425 318.0500 0005081 119.0583 25.3892 15.49796280435937 CXO 1 25867U 99040B 24025.07214892 .00000543 00000-0 00000-0 0 9998 2 25867 38.4747 168.7210 9001797 285.3113 0.1878 0.37805963 14026 ...Continue Reading

[TLELIST] Current TLEs

January 22nd 2024 PDT

HST 1 20580U 90037B 24021.91773966 .00006130 00000-0 30406-3 0 9997 2 20580 28.4682 250.1725 0002227 233.6583 126.3804 15.15641849654656 ISS (ZARYA) 1 25544U 98067A 24022.37051078 .00024539 00000-0 44042-3 0 9991 2 25544 51.6431 322.8396 0005033 117.7562 27.8997 15.49743990435785 CXO 1 25867U 99040B 24019.78299550 .00000376 00000-0 00000+0 0 9996 2 25867 38.3920 169.3952 9004742 284.7509 0.2576 0.37810394 25159 ...Continue Reading

[TLELIST] Current TLEs

January 21st 2024 PDT

HST 1 20580U 90037B 24021.08471356 .00006528 00000-0 32451-3 0 9996 2 20580 28.4682 255.7356 0002327 222.3278 263.4176 15.15632472654785 ISS (ZARYA) 1 25544U 98067A 24021.33698155 .00025877 00000-0 46473-3 0 9995 2 25544 51.6423 327.9609 0005057 112.9088 22.8885 15.49694343435626 CXO 1 25867U 99040B 24019.78299550 .00000376 00000-0 00000+0 0 9996 2 25867 38.3920 169.3952 9004742 284.7509 0.2576 0.37810394 25159 ...Continue Reading

[TLELIST] Current TLEs

January 20th 2024 PDT

HST 1 20580U 90037B 24019.96306392 .00006812 00000-0 33916-3 0 9990 2 20580 28.4685 263.2260 0002326 208.2456 265.3001 15.15619275654353 ISS (ZARYA) 1 25544U 98067A 24020.37097905 .00021039 00000-0 38035-3 0 9995 2 25544 51.6421 332.7416 0005071 109.3432 33.7475 15.49636107435476 CXO 1 25867U 99040B 24019.78299550 .00000376 00000-0 00000+0 0 9996 2 25867 38.3920 169.3952 9004742 284.7509 0.2576 0.37810394 25159 ...Continue Reading

[TLELIST] Current TLEs

January 19th 2024 PDT

HST 1 20580U 90037B 24018.90487627 .00007168 00000-0 35752-3 0 9999 2 20580 28.4682 270.2943 0002322 195.2970 253.0520 15.15605553654194 ISS (ZARYA) 1 25544U 98067A 24019.34240294 .00021021 00000-0 38062-3 0 9992 2 25544 51.6423 337.8345 0005147 104.3142 56.9622 15.49592244435319 CXO 1 25867U 99040B 24019.78299550 .00000376 00000-0 00000+0 0 9996 2 25867 38.3920 169.3952 9004742 284.7509 0.2576 0.37810394 25159 ...Continue Reading

[TLELIST] Current TLEs

January 18th 2024 PDT

HST 1 20580U 90037B 24018.12558428 .00007275 00000-0 36310-3 0 9991 2 20580 28.4683 275.4985 0002313 185.7338 322.1987 15.15594755654343 ISS (ZARYA) 1 25544U 98067A 24018.36380118 .00020870 00000-0 37850-3 0 9998 2 25544 51.6427 342.6785 0005121 101.7196 356.8658 15.49550055435165 CXO 1 25867U 99040B 24019.78299550 .00000376 00000-0 00000+0 0 9996 2 25867 38.3920 169.3952 9004742 284.7509 0.2576 0.37810394 25159 ...Continue Reading

[TLELIST] Current TLEs

January 17th 2024 PDT

HST 1 20580U 90037B 24016.14336645 .00007699 00000-0 38516-3 0 9996 2 20580 28.4691 288.7336 0002498 166.3960 304.8254 15.15563802653778 ISS (ZARYA) 1 25544U 98067A 24017.33474374 .00020201 00000-0 36727-3 0 9992 2 25544 51.6426 347.7749 0005009 100.0286 14.3678 15.49504002435009 CXO 1 25867U 99040B 24017.13982198 .00000461 00000-0 00000-0 0 9996 2 25867 38.3406 169.8027 9003816 284.4190 0.4619 0.37808941 13994 ...Continue Reading

[TLELIST] Current TLEs

January 16th 2024 PDT

HST 1 20580U 90037B 24016.14336645 .00007699 00000-0 38516-3 0 9996 2 20580 28.4691 288.7336 0002498 166.3960 304.8254 15.15563802654038 ISS (ZARYA) 1 25544U 98067A 24016.37639427 .00019671 00000-0 35838-3 0 9998 2 25544 51.6426 352.5203 0005018 96.8450 68.2053 15.49462555434856 CXO 1 25867U 99040B 24017.13982198 .00000461 00000-0 00000-0 0 9996 2 25867 38.3406 169.8027 9003816 284.4190 0.4619 0.37808941 13994 ...Continue Reading

[TLELIST] Current TLEs

January 15th 2024 PDT

HST 1 20580U 90037B 24014.95173163 .00008413 00000-0 42200-3 0 9997 2 20580 28.4695 296.6904 0002498 153.7632 282.9443 15.15545627653598 ISS (ZARYA) 1 25544U 98067A 24015.20611772 .00017842 00000-0 32648-3 0 9996 2 25544 51.6428 358.3153 0004931 92.6192 20.3337 15.49411179434676 CXO 1 25867U 99040B 24017.13982198 .00000461 00000-0 00000-0 0 9996 2 25867 38.3406 169.8027 9003816 284.4190 0.4619 0.37808941 13994 ...Continue Reading
  • This mailing list is a public mailing list - anyone may join or leave, at any time.
  • This mailing list is announce-only.

International Space Station (ISS) / Hubble Space Telescope (HST) / Chandra X-Ray Observatory Orbital Data via EMAIL

Privacy Policy:

Private list